When you browse on this site, cookies collect data to enhance your experience and personalize the content and advertising you see.
Visit our Privacy Policy to learn more. By continuing to use the site, you agree to this use of cookies and data.
  • In Hungary
  • List of Countries
  • For 7 days
  • Water Temperature
  • Satellite Maps
  • Weather Map
  • News
  • Weather Widgets
  • user-avatar
    Login

    Hourly Weather Sanford

    Today, 27 June, Thursday

    Time Temperature Precipitation Wind Pressure Humidity
    00:00 +14°C° 0.7 mm 0 mps 755 mmHg 98%
    01:00 +14°C° 0.7 mm 0 mps 755 mmHg 98%
    02:00 +14°C° 0.2 mm 0 mps 755 mmHg 98%
    03:00 +14°C° 0.2 mm 0 mps 755 mmHg 98%
    04:00 +13°C° 0.2 mm 0 mps 755 mmHg 98%
    05:00 +15°C° 0 mm 0 mps 756 mmHg 97%
    06:00 +16°C° 0 mm 0 mps 756 mmHg 96%
    07:00 +17°C° 0 mm 0 mps 756 mmHg 95%
    08:00 +18°C° 0 mm 0 mps 756 mmHg 90%
    09:00 +20°C° 0 mm 0 mps 756 mmHg 86%
    10:00 +21°C° 0 mm 0 mps 756 mmHg 81%
    11:00 +25°C° 0 mm 1 mps 756 mmHg 72%
    12:00 +27°C° 0 mm 1 mps 756 mmHg 64%
    13:00 +29°C° 0 mm 1 mps 756 mmHg 55%
    14:00 +28°C° 0 mm 2 mps 756 mmHg 59%
    15:00 +27°C° 0 mm 2 mps 755 mmHg 62%
    16:00 +27°C° 0 mm 2 mps 755 mmHg 65%
    17:00 +25°C° 0 mm 2 mps 755 mmHg 73%
    18:00 +23°C° 0 mm 2 mps 756 mmHg 82%
    19:00 +20°C° 0 mm 2 mps 756 mmHg 90%
    20:00 +20°C° 0 mm 1 mps 756 mmHg 92%
    21:00 +19°C° 0 mm 1 mps 756 mmHg 94%
    22:00 +18°C° 0 mm 1 mps 757 mmHg 96%
    23:00 +16°C° 0 mm 1 mps 756 mmHg 96%

    Tomorrow, 28 June, Friday

    Time Temperature Precipitation Wind Pressure Humidity
    00:00 +16°C° 0 mm 1 mps 756 mmHg 96%
    01:00 +16°C° 0 mm 1 mps 756 mmHg 97%
    02:00 +16°C° 0 mm 1 mps 756 mmHg 96%
    03:00 +16°C° 0 mm 1 mps 756 mmHg 95%
    04:00 +16°C° 0 mm 1 mps 756 mmHg 95%
    05:00 +19°C° 0 mm 1 mps 756 mmHg 88%
    06:00 +21°C° 0 mm 1 mps 757 mmHg 81%
    07:00 +23°C° 0 mm 1 mps 757 mmHg 74%
    08:00 +25°C° 0 mm 1 mps 757 mmHg 65%
    09:00 +27°C° 0 mm 1 mps 757 mmHg 55%
    10:00 +29°C° 0 mm 1 mps 757 mmHg 45%
    11:00 +30°C° 0 mm 1 mps 757 mmHg 43%
    12:00 +31°C° 0 mm 1 mps 756 mmHg 40%
    13:00 +32°C° 0 mm 1 mps 756 mmHg 38%
    14:00 +31°C° 0 mm 1 mps 756 mmHg 42%
    15:00 +30°C° 0 mm 2 mps 756 mmHg 45%
    16:00 +29°C° 0 mm 2 mps 755 mmHg 49%
    17:00 +27°C° 0 mm 2 mps 755 mmHg 57%
    18:00 +25°C° 0 mm 2 mps 756 mmHg 66%
    19:00 +23°C° 0 mm 2 mps 756 mmHg 74%
    20:00 +23°C° 0 mm 2 mps 756 mmHg 72%
    21:00 +23°C° 0 mm 2 mps 756 mmHg 71%
    22:00 +22°C° 0 mm 3 mps 756 mmHg 69%
    23:00 +21°C° 0 mm 2 mps 756 mmHg 71%

    Day after tomorrow, 29 June, Saturday

    Time Temperature Precipitation Wind Pressure Humidity
    00:00 +22°C° 0 mm 1 mps 755 mmHg 72%
    01:00 +19°C° 0 mm 0 mps 755 mmHg 74%
    02:00 +19°C° 0.1 mm 0 mps 755 mmHg 78%
    03:00 +20°C° 0.1 mm 1 mps 754 mmHg 83%
    04:00 +20°C° 0.1 mm 1 mps 754 mmHg 87%
    05:00 +20°C° 0 mm 1 mps 754 mmHg 87%
    06:00 +18°C° 0 mm 0 mps 754 mmHg 88%
    07:00 +18°C° 0 mm 0 mps 754 mmHg 89%
    08:00 +19°C° 0 mm 0 mps 753 mmHg 85%
    09:00 +22°C° 0 mm 1 mps 753 mmHg 81%
    10:00 +23°C° 0 mm 1 mps 753 mmHg 77%
    11:00 +24°C° 0.1 mm 1 mps 752 mmHg 74%
    12:00 +25°C° 0.1 mm 2 mps 751 mmHg 72%
    13:00 +26°C° 0.1 mm 2 mps 751 mmHg 70%
    14:00 +26°C° 0.8 mm 2 mps 750 mmHg 75%
    15:00 +26°C° 0.8 mm 1 mps 750 mmHg 80%
    16:00 +25°C° 0.8 mm 1 mps 749 mmHg 85%
    17:00 +24°C° 0.4 mm 1 mps 749 mmHg 88%
    18:00 +24°C° 0.4 mm 1 mps 749 mmHg 91%
    19:00 +23°C° 0.4 mm 1 mps 749 mmHg 94%
    20:00 +22°C° 0.1 mm 1 mps 749 mmHg 95%
    21:00 +21°C° 0.1 mm 1 mps 748 mmHg 96%
    22:00 +19°C° 0.1 mm 2 mps 748 mmHg 96%
    23:00 +19°C° 0 mm 2 mps 748 mmHg 96%

    30 June, Sunday

    Time Temperature Precipitation Wind Pressure Humidity
    00:00 +18°C° 0 mm 2 mps 748 mmHg 96%
    01:00 +18°C° 0 mm 2 mps 747 mmHg 95%
    02:00 +17°C° 0 mm 2 mps 747 mmHg 95%
    03:00 +17°C° 0 mm 2 mps 747 mmHg 94%
    04:00 +17°C° 0 mm 2 mps 746 mmHg 93%
    05:00 +18°C° 0.2 mm 2 mps 746 mmHg 93%
    06:00 +19°C° 0.2 mm 1 mps 746 mmHg 92%
    07:00 +20°C° 0.2 mm 1 mps 746 mmHg 92%
    08:00 +21°C° 0.9 mm 1 mps 746 mmHg 90%
    09:00 +23°C° 0.9 mm 2 mps 745 mmHg 88%
    10:00 +24°C° 0.9 mm 2 mps 745 mmHg 86%
    11:00 +24°C° 1.7 mm 2 mps 745 mmHg 85%
    12:00 +22°C° 1.7 mm 3 mps 745 mmHg 85%
    13:00 +22°C° 1.7 mm 3 mps 745 mmHg 84%
    14:00 +22°C° 1.2 mm 3 mps 745 mmHg 85%
    15:00 +21°C° 1.2 mm 3 mps 745 mmHg 86%
    16:00 +21°C° 1.2 mm 3 mps 745 mmHg 87%
    17:00 +20°C° 0.3 mm 3 mps 746 mmHg 89%
    18:00 +19°C° 0.3 mm 3 mps 746 mmHg 90%
    19:00 +18°C° 0.3 mm 3 mps 747 mmHg 92%
    20:00 +17°C° 0 mm 3 mps 747 mmHg 93%
    21:00 +16°C° 0 mm 3 mps 748 mmHg 94%
    22:00 +16°C° 0 mm 2 mps 749 mmHg 95%
    23:00 +15°C° 0 mm 2 mps 749 mmHg 95%

    1 July, Monday

    Time Temperature Precipitation Wind Pressure Humidity
    00:00 +15°C° 0 mm 2 mps 749 mmHg 95%
    01:00 +14°C° 0 mm 1 mps 749 mmHg 96%
    02:00 +14°C° 0 mm 1 mps 749 mmHg 96%
    03:00 +14°C° 0 mm 1 mps 750 mmHg 96%
    04:00 +14°C° 0 mm 1 mps 750 mmHg 95%
    05:00 +15°C° 0 mm 1 mps 750 mmHg 91%
    06:00 +18°C° 0 mm 1 mps 750 mmHg 86%
    07:00 +19°C° 0 mm 2 mps 750 mmHg 82%
    08:00 +22°C° 0 mm 1 mps 750 mmHg 71%
    09:00 +25°C° 0 mm 1 mps 750 mmHg 59%
    10:00 +27°C° 0 mm 1 mps 750 mmHg 48%
    11:00 +28°C° 0 mm 1 mps 749 mmHg 48%
    12:00 +28°C° 0 mm 2 mps 749 mmHg 47%
    13:00 +28°C° 0 mm 2 mps 749 mmHg 47%
    14:00 +27°C° 0 mm 3 mps 748 mmHg 50%
    15:00 +26°C° 0 mm 3 mps 748 mmHg 54%
    16:00 +26°C° 0 mm 3 mps 748 mmHg 57%
    17:00 +24°C° 0 mm 3 mps 747 mmHg 64%
    18:00 +21°C° 0 mm 3 mps 747 mmHg 70%
    19:00 +19°C° 0 mm 3 mps 747 mmHg 77%
    20:00 +19°C° 0 mm 2 mps 747 mmHg 79%
    21:00 +18°C° 0 mm 2 mps 747 mmHg 82%
    22:00 +18°C° 0 mm 1 mps 747 mmHg 84%
    23:00 +18°C° 0.5 mm 1 mps 746 mmHg 88%

    2 July, Tuesday

    Time Temperature Precipitation Wind Pressure Humidity
    00:00 +18°C° 0.5 mm 1 mps 746 mmHg 91%
    01:00 +18°C° 0.5 mm 1 mps 745 mmHg 95%
    02:00 +18°C° 0.1 mm 1 mps 745 mmHg 95%
    03:00 +18°C° 0.1 mm 1 mps 745 mmHg 96%
    04:00 +17°C° 0.1 mm 2 mps 745 mmHg 97%
    05:00 +19°C° 0 mm 1 mps 745 mmHg 94%
    06:00 +21°C° 0 mm 1 mps 745 mmHg 92%
    07:00 +22°C° 0 mm 1 mps 746 mmHg 89%
    08:00 +25°C° 0 mm 2 mps 746 mmHg 75%
    09:00 +27°C° 0 mm 2 mps 746 mmHg 61%
    10:00 +29°C° 0 mm 3 mps 747 mmHg 46%
    11:00 +30°C° 0 mm 3 mps 746 mmHg 43%
    12:00 +30°C° 0 mm 4 mps 746 mmHg 40%
    13:00 +32°C° 0 mm 4 mps 746 mmHg 37%
    14:00 +32°C° 0 mm 4 mps 746 mmHg 37%
    15:00 +32°C° 0 mm 4 mps 746 mmHg 38%
    16:00 +32°C° 0 mm 4 mps 746 mmHg 38%
    17:00 +28°C° 0 mm 3 mps 746 mmHg 48%
    18:00 +26°C° 0 mm 2 mps 746 mmHg 57%
    19:00 +24°C° 0 mm 2 mps 746 mmHg 67%
    20:00 +23°C° 0 mm 2 mps 746 mmHg 67%
    21:00 +21°C° 0 mm 2 mps 747 mmHg 67%
    22:00 +20°C° 0 mm 2 mps 747 mmHg 67%
    23:00 +20°C° 0 mm 2 mps 747 mmHg 67%
    Show more